Location: Lafig�re
(44.4503°N, 4.0357°E)
Time: 14:48:58
(UTC+00:00)

Vanguard 2 Rocket - Pass Details

Date: 27 June 2021
Orbit: 555 x 3325 km, 32.9° (Epoch: 28 July)

Event Time Altitude Azimuth Distance (km) Brightness Sun altitude
Rises 20:39:18 0° 271° (W) 7,271 12.2 -9.8°
Reaches altitude 10° 20:44:25 10° 266° (W) 6,286 11.7 -10.5°
Maximum altitude 21:02:58 49° 201° (SSW) 3,472 9.6 -12.6°
Enters shadow 21:14:37 16° 136° (SE) 4,312 9.7 -13.8°
